Powrót do katalogu

BREEZE-M DEB

LostHEO
NORAD 36959·DEBRIS·🇷🇺 Russia

Wystrzelony Feb 28, 2006 z Baikonur Cosmodrome

Loading…

Następne Przeloty (najbliższe 24 godziny)

TLE

NieaktualneSource: Space-Track

Epoka: Jul 25, 2026, 18:06 UTC

1 36959U 06006CR  26206.75418223  .00033946  00000-0  58250-2 0  9999
2 36959  51.8775 207.4357 2805350 247.8716 319.6392  9.54666654352759

Śledź BREEZE-M DEB w czasie rzeczywistym z AllMySat

Download on the App Store